Dania, FL

6:49 AM EST on December 07, 2016 (GMT -0500)
Fort Lauderdale-Hollywood International

Weather History for KFLL - May, 2015

Change the Weather History Date:

Thursday, May 28, 2015

  Actual Average Record
Temperature  
Mean Temperature 81 °F 82 °F  
Max Temperature 85 °F 88 °F 96 °F (1967)
Min Temperature 77 °F 76 °F 63 °F (1928)
Degree Days  
Heating Degree Days 0 0  
Month to date heating degree days 0 0  
Since 1 July heating degree days 97 112  
Cooling Degree Days 16 17  
Month to date cooling degree days 426 420  
Year to date cooling degree days 1487 1367  
Growing Degree Days 30 (Base 50)    
Moisture  
Dew Point 65 °F    
Average Humidity 61    
Maximum Humidity 67    
Minimum Humidity 55    
Precipitation  
Precipitation T in 0.23 in 3.90 in (1998)
Month to date precipitation 1.94 3.98  
Year to date precipitation 14.02 16.82  
Snow  
Snow 0.00 in - - ()
Month to date snowfall 0.0  
Since 1 July snowfall 0.0  
Snow Depth 0.00 in    
Sea Level Pressure  
Sea Level Pressure 30.07 in    
Wind  
Wind Speed 13 mph (ENE)    
Max Wind Speed 21 mph    
Max Gust Speed 27 mph    
Visibility 10 miles    
Events Rain    
T = Trace of Precipitation, MM = Missing Value Source: NWS Daily Summary

Daily Weather History Graph

Daily Weather History Graph

Search for Another Location

Airport or City:

Trip Planner

Search our weather history database for the weather conditions in past years. The results will help you decide how hot, cold, wet, or windy it might be!

Date:

Astronomy

May. 28, 2015 Rise Set
Actual Time 6:29 AM EDT 8:06 PM EDT
Civil Twilight 6:03 AM EDT 8:32 PM EDT
Nautical Twilight 5:33 AM EDT 9:02 PM EDT
Astronomical Twilight 5:01 AM EDT 9:34 PM EDT
Moon 3:45 PM EDT (5/28) 3:10 AM EDT (5/28)
Length of Visible Light 14h 28m
Length of Day
13h 37m
Waxing Gibbous, 76% of the Moon is Illuminated
May 28
Waxing Gibbous
Jun 2
Full
Jun 9
Last Quarter
Jun 16
New
Jun 24
First Quarter

Hourly Weather History & Observations

Time (EDT) Temp. Heat Index Dew Point Humidity Pressure Visibility Wind Dir Wind Speed Gust Speed Precip Events Conditions
12:53 AM 78.1 °F - 63.0 °F 60% 30.10 in 10.0 mi East 15.0 mph 20.7 mph N/A   Mostly Cloudy
1:53 AM 78.1 °F - 64.9 °F 64% 30.08 in 10.0 mi East 11.5 mph - N/A   Scattered Clouds
2:53 AM 77.0 °F - 64.9 °F 66% 30.06 in 10.0 mi ENE 12.7 mph - N/A   Scattered Clouds
3:53 AM 77.0 °F - 64.0 °F 64% 30.05 in 10.0 mi East 17.3 mph - N/A   Scattered Clouds
4:53 AM 77.0 °F - 62.6 °F 61% 30.05 in 10.0 mi East 16.1 mph - N/A   Scattered Clouds
5:53 AM 77.0 °F - 61.0 °F 58% 30.06 in 10.0 mi East 12.7 mph - N/A   Partly Cloudy
6:53 AM 77.0 °F - 64.9 °F 66% 30.07 in 10.0 mi East 13.8 mph - N/A   Scattered Clouds
7:53 AM 79.0 °F - 64.9 °F 62% 30.07 in 10.0 mi ENE 12.7 mph - N/A   Scattered Clouds
8:53 AM 81.0 °F 82.7 °F 64.9 °F 58% 30.08 in 10.0 mi East 13.8 mph - N/A   Scattered Clouds
9:53 AM 81.0 °F 83.3 °F 66.9 °F 62% 30.09 in 10.0 mi East 17.3 mph - N/A   Mostly Cloudy
10:53 AM 82.0 °F 84.9 °F 68.0 °F 62% 30.10 in 10.0 mi ENE 16.1 mph - N/A   Mostly Cloudy
11:53 AM 82.9 °F 85.4 °F 66.9 °F 58% 30.10 in 10.0 mi East 17.3 mph 21.9 mph N/A   Mostly Cloudy
12:53 PM 84.9 °F 87.6 °F 66.9 °F 55% 30.10 in 10.0 mi ENE 12.7 mph 20.7 mph N/A   Mostly Cloudy
1:53 PM 84.0 °F 86.5 °F 66.9 °F 56% 30.09 in 10.0 mi East 13.8 mph 19.6 mph N/A   Mostly Cloudy
2:53 PM 82.9 °F 86.5 °F 69.1 °F 63% 30.07 in 10.0 mi ENE 15.0 mph 25.3 mph N/A   Mostly Cloudy
3:53 PM 84.0 °F 87.0 °F 68.0 °F 58% 30.06 in 10.0 mi East 11.5 mph 18.4 mph N/A   Mostly Cloudy
4:53 PM 80.1 °F 82.1 °F 66.0 °F 62% 30.06 in 10.0 mi ENE 9.2 mph - N/A   Overcast
5:53 PM 81.0 °F 83.3 °F 66.9 °F 62% 30.05 in 10.0 mi East 13.8 mph - N/A   Scattered Clouds
6:53 PM 78.1 °F - 68.0 °F 71% 30.06 in 8.0 mi ENE 10.4 mph - 0.00 in Rain Light Rain
7:53 PM 79.0 °F - 64.0 °F 60% 30.06 in 10.0 mi ENE 15.0 mph - 0.00 in   Overcast
8:53 PM 78.1 °F - 66.0 °F 66% 30.06 in 10.0 mi ENE 11.5 mph - N/A   Mostly Cloudy
9:53 PM 78.1 °F - 64.9 °F 64% 30.07 in 10.0 mi ENE 11.5 mph - N/A   Scattered Clouds
10:53 PM 78.1 °F - 63.0 °F 60% 30.08 in 10.0 mi ENE 9.2 mph - N/A   Scattered Clouds
11:53 PM 78.1 °F - 64.0 °F 62% 30.08 in 10.0 mi East 11.5 mph 17.3 mph N/A   Partly Cloudy